Retour au catalogue

STARLINK-35838

ActifCommunicationsVLEO
NORAD 66836·PAYLOAD·🇺🇸 United States

Lancé Dec 2, 2025 depuis Vandenberg Space Force Base

Loading…

Prochains Passages (prochaines 24 heures)

TLE

FraisSource: CelesTrak SupGP

Époque: Sep 15, 2026, 02:59 UTC

1 66836C 25280R   26258.12479167 -.00040168  00000+0 -33652-2 0  2585
2 66836  70.0001 216.7324 0003667 259.5439  99.5359 14.98361757    15

Suivez STARLINK-35838 en temps réel avec AllMySat

Download on the App Store